FENGYUN 1C DEB, 31080

Orbit data source: Space-Track

FENGYUN 1C DEB, 31080 is space debris in SSO originally from a launch on Mon, 10 May 1999 UTC launched from the Taiyaun Space Center, China (TSC). Fengyun 1C debris stems from the Chinese weather satellite Fengyun-1C, which was intentionally destroyed by a Chinese anti-satellite missile in 2007. This event dramatically increased the amount of space debris, with thousands of trackable fragments posing hazards to satellites and human spaceflight. The Fengyun 1C debris cloud has become a focal point in discussions about space sustainability and the need for international regulations to prevent the creation of new debris.

Loading next visibility...
Identifier
31080, 1999-025BGA
Orbit
SSO
Country
Flag of CNCN / PRC
Related business
Manufacturer
Unknown
Mission
Spacecraft
Bus & Motor
Unknown
Mass
Unknown
Launch date (UTC)
1999-05-10 (27 years ago)
Launch vehicle
Unknown
Launch site
Taiyaun Space Center, China (TSC)
Object type
Payload
Rocket body
Debris
Shape & HBR
Unknown shape, 1.1 m
Radar Cross Section
Small (<0.1 m²)

Expand to show TLE details & history
Last TLE update: 3 months ago

TLE from 3 months ago
0 FENGYUN 1C DEB
1 31080U 99025BGA 25263.63068636  .00003824  00000-0  16921-2 0  9991
2 31080  99.1002  41.8649 0067655 331.2609  28.4847 14.22579675617724
Epoch: 2025-09-20T15:08Z
TLE epoch observation values (Epoch: 2025-09-20T15:08:11.301Z)
Latitude
Longitude
175.057°
Altitude
776.83 km
Speed
7.488 km/s
True Right ascension
02h 47m 27s
True Declination
0° 00' 00"
Sunlit
Object was in full shadow at epoch
Visualization orbit readout
Latitude
Unknown
Longitude
Unknown
Altitude
Unknown
Speed
Unknown
Apparent Right ascension
Unknown
Apparent Declination
Unknown
Sunlit
N/A
Visualization observer readout
Local Sidereal Time
05:17:56
Azimuth
Unknown
Elevation
Unknown
Doppler factor
Unknown
Orbital elements
Apogee altitude
862.473 km
Perigee altitude
765.159 km
Semi-major axis
7,191.953 km
Eccentricity
0.00677
Inclination
99.1002°
RAAN
41.8649°
Arg. of periapsis
331.2609°
True anomaly
28.85721°
Mean anomaly
28.4847°
Eccentric anomaly
28.67068°
Mean motion
3.55855 °/min
Orbital period
101.16 mins
BSTAR
0.0016921
Loading maneuver chart data...
Computing Atmospheric mass density...

Documentation

Showing up to 5 results
|